STARLINK-1881 (47166 NORAD) Tracking and Keplerian Element Data

This shows tracking and keplerian element data for the satellite.

Feedback or suggestion? Click here.




ElementValue
Catalog47166
NameSTARLINK-1881
Epoch Orbit967
Epoch Day21.16668981
Epoch Year2021
RAAN74.2538
Inclination53.0547
Eccentricity0.0001343
Argument of Perigee61.4908
Mean Anonmoly21.3058
Mean Motion15.4244824
Decay Rate-0.01086834
L11 47166U 20088AW 21021.16668981 -.01086834 00000-0 -26943-1 0 9990
L22 47166 53.0547 74.2538 0001343 61.4908 21.3058 15.42448240 9673

Live tracking and technical data element details for STARLINK-1881 (NORAD 47166). STARLINK-1881 can be tracked NOW for your location showing map with azimuth and elevation plus other details from your city location.

Track the satellite on the map from your city or location and see movement details for azimuth, elevation, latitude, longitude, range, height, and movement on the map or in text.







IsCatalogInMostPopularTable: catalog: 47166, numindb: 28
Update: records affected: 1



GetName: 47166 STARLINK-1881

Hit Count: updated at: Fri, 22 Jan 2021 14:53:33 GMT